PROMETHEUS 2-1

Last updated on Tue Jul 01 2025 00:03:44 GMT+0000 (Coordinated Universal Time)

1 41854U 16067G 25181.59718403 .00035544 00000+0 63264-3 0 9990 2 41854 98.0743 37.4270 0007042 163.1147 197.0338 15.50041185473661
UTC large
Height (km)
Speed (km/s)
/
Latitude / Longitude
Inclination (degrees)
Orbital Period (minutes)
Azimuth
Elevation
Range (km)
Doppler Factor

Next 0 passes for location: London (51.5072 / 0.1276)

Sorry there are no passes over London.